Regional Weather Roundup
Issued by NWS Green Bay, WI

Home | Current Version | Previous Version | Graphics & Text | Print | Product List | Glossary Off
Versions: 1 2 3 4 5 6 7 8 9 10 11 12 13 14 15 16 17 18 19 20 21 22 23 24 25 26 27 28 29 30 31 32 33 34 35 36 37 38 39 40 41 42 43 44 45 46 47 48 49 50

000
ASUS43 KGRB 021911
RWRGRB

NORTH-CENTRAL AND NORTHEAST WISCONSIN REGIONAL WEATHER ROUNDUP
NATIONAL WEATHER SERVICE GREEN BAY WI
200 PM CDT WED SEP 02 2015

WIZ005-009-010>012-018-019-022000-
NORTH CENTRAL WISCONSIN

CITY           SKY/WX    TMP DP  RH WIND       PRES   REMARKS
IRONWOOD       CLOUDY    70  68  94 SE9       29.97F
MANITOWISH WTR DRIZZLE   68  68 100 E5        30.03F
ARBOR VITAE    RAIN      67  65  92 SE3       30.04F
EAGLE RIVER    LGT RAIN  68  67  96 NE6       30.04S
LAND O LAKES   LGT RAIN  69  67  94 NE5       30.04F
RHINELANDER    LGT RAIN  69  66  90 CALM      30.05R
PHILLIPS       RAIN      65  64  97 E6        30.02F
ANTIGO         CLOUDY    78  69  73 CALM      30.01F
TOMAHAWK       LGT RAIN  67  65  93 N3        30.05R
MERRILL        LGT RAIN  71  69  94 N7        30.01S
$$

WIZ013-073-022000-
NORTHEAST WISCONSIN

CITY           SKY/WX    TMP DP  RH WIND       PRES   REMARKS
IRON MOUNTAIN  PTSUNNY   75  68  78 N5        30.00S
MARINETTE      PTSUNNY   72  63  73 E10       29.97R
OCONTO         PTSUNNY   85  76  74 S8        29.94F HX  95
$$

WIZ017-030-035>037-045-022000-
CENTRAL WISCONSIN

CITY           SKY/WX    TMP DP  RH WIND       PRES   REMARKS
MEDFORD        CLOUDY    68  67  98 NE7       30.00F
WAUSAU         CLOUDY    82  69  64 N6        29.96F
MOSINEE        TSTM      79  72  78 N7        29.99S
MARSHFIELD     CLOUDY    83  67  58 CALM      29.97F
WISC RAPIDS    PTSUNNY   85  66  53 SW9       29.98S
STEVENS POINT  PTSUNNY   83  65  53 SW6       29.97S
WAUPACA        PTSUNNY   90  67  46 S10       29.97S HX  93
SHAWANO        CLOUDY    87  71  58 S3        29.96F HX  93
CLINTONVILLE   MOSUNNY   88  66  48 S8        29.95F HX  90
WAUTOMA        PTSUNNY   88  68  51 S12       29.97F HX  91
$$

WIZ038-039-048-051-022000-
FOX VALLEY

CITY           SKY/WX    TMP DP  RH WIND       PRES   REMARKS
NWS GREEN BAY  PTSUNNY   86  71  60 SW5       29.96F HX  91
APPLETON       MOSUNNY   84  64  51 S9        29.96F
OSHKOSH        MOSUNNY   86  69  56 SW9       29.97F HX  90
FOND DU LAC    MOSUNNY   85  70  60 SW8       29.98F
$$

WIZ022-050-052-022000-
EAST CENTRAL WISCONSIN

CITY           SKY/WX    TMP DP  RH WIND       PRES   REMARKS
EPHRAIM        FAIR      77  68  73 NE7       29.97F
STURGEON BAY   PTSUNNY  N/A N/A N/A MISG        N/A
MANITOWOC      MOSUNNY   88  67  49 MISG      29.97F HX  91
SHEBOYGAN      SUNNY     87  68  52 SW12      29.98F HX  90
$$

LMZ563-521-522-541>543-022000-
LAKESHORE

STATION/POSITION TIME  TEMP    WIND        PRES    VSBY  WAVE
                       AIR SEA DIR/SP/G                  HT/PER
                 (UTC) (F)     (DEG/KT/KT) (MB)    (MI)  (FT/S)
SHEBOYGAN LKSHOR 1900   78     170/ 18/ 21 1014.9F
KEWAUNEE LKSHORE 1800   61     140/  5/  8 1014.0S
ALGOMA MARINA    1829          220/  4/  6   N/A
NORTHPORT PIER   1900   71     140/  3/ 16 1014.6F
N MID LAKE BUOY  1850   69 66   10/ 12/ 14 1014.9S         1
S GREEN BAY BUOY 1800   74 68  130/  4/  4 1016.0
SISTER BAY LKSHO 1819           20/  7/  8   N/A
CHAMBERS ISLAND  1800   71     320/  6/ 11 1015.9R
MENOMINEE LKSHOR 1800   68      50/ 13/ 16 1013.9R
$$


USA.gov is the U.S. government's official web portal to all federal, state and local government web resources and services.